Regional Weather Roundup
Issued by NWS Grand Forks, ND

Home | Current Version | Previous Version | Text Only | Print | Product List | Glossary Off
Versions: 1 2 3 4 5 6 7 8 9 10 11 12 13 14 15 16 17 18 19 20 21 22 23 24 25 26 27 28 29 30 31 32 33 34 35 36 37 38 39 40 41 42 43 44 45 46 47 48 49 50

000
ASUS43 KFGF 241510
RWRFGF
PRAIRIE TO PINES  WEATHER ROUNDUP
NATIONAL WEATHER SERVICE EASTERN NORTH DAKOTA/GRAND FORKS ND
1000 AM CDT WED MAY 24 2017

 **SATELLITE DATA USED TO AUGMENT SKY COVER AT AUTOMATED STATIONS**
 *****  WEATHER ACROSS EASTERN NORTH DAKOTA  *****

CITY           SKY/WX    TMP DP  RH WIND       PRES   REMARKS
GRAND FORKS    FAIR      60  45  57 SE12      29.79F
GRAND FRKS AFB FAIR      59  43  56 SE12      29.79F
DEVILS LAKE    FAIR      56  41  57 S14G21    29.76
FARGO          FAIR      57  45  64 SE9       29.80F
WAHPETON ARPT  FAIR      54  45  71 S5        29.81F
$$

 ***** WEATHER ACROSS CENTRAL AND WESTERN NORTH DAKOTA  *****

CITY           SKY/WX    TMP DP  RH WIND       PRES   REMARKS
BISMARCK       FAIR      59  42  53 SE15      29.72F
MINOT          FAIR      61  34  36 SE20G37   29.67F
JAMESTOWN      FAIR      54  44  69 S12       29.77F
MINOT AFB      FAIR      61  35  37 S24G30    29.65F
GARRISON         N/A     57  38  48 S16       29.66F
WILLISTON      FAIR      62  37  39 SE23G39   29.53F
DICKINSON      FAIR      56  34  43 S29G36    29.61F
HETTINGER      FAIR      57  36  45 S21       29.67F
$$

 *****  OTHER AIRPORT OBSERVATIONS IN OUR AREA  *****

CITY           SKY/WX    TMP DP  RH WIND       PRES   REMARKS
WALHALLA       NOT AVBL
GRAFTON AIRPOR FAIR      59  43  55 SE14      29.80F
VALLEY CITY AR FAIR      55  48  76 SE13G18   29.80F
CANDO          NOT AVBL
CAVALIER APRT  FAIR      59  43  55 S15       29.78F HAZE
GWINNER        PTSUNNY   55  46  71 MISG      29.79F
SHEYENNE NWR     N/A     57  47  69 S6        29.95S
ROLLA          FAIR      59  34  38 S21G28    29.73F
 ***** THE ABOVE OBSERVATIONS ARE NON NWS ARE NOT QUALITY
       CONTROLLED AND MAY MIS-REPORT RAIN FOR SNOW...
$$

  *****  WEATHER ACROSS NORTHERN MINNESOTA  *****

CITY           SKY/WX    TMP DP  RH WIND       PRES   REMARKS
FLAG ISLAND    FAIR      52  45  76 S6        29.82F
WARROAD        FAIR      57  46  67 E6        29.83F
ROSEAU         FAIR      61  45  55 S7        29.82F
HALLOCK        FAIR      61  43  51 S15       29.79F
THF RVR FALLS  FAIR      57  42  57 SE12      29.82F
BAUDETTE       FAIR      58  42  55 E6        29.83F
WASKISH        FAIR      57  43  58 SE8       29.83F
CROOKSTON      FAIR      59  43  55 S8        29.81F
STEPHEN NDAWN    N/A     61  43  51 S12         N/A
GREENBUSH NDAW   N/A     61  43  51 SE12        N/A
$$
  *****  WEATHER ACROSS CENTRAL AND WEST MINNESOTA  *****

CITY           SKY/WX    TMP DP  RH WIND       PRES   REMARKS
FOSSTON        FAIR      55  48  76 E6        29.82F
BEMIDJI        FAIR      55  40  58 E8        29.82F
PARK RAPIDS    FAIR      57  40  52 CALM      29.81F
ELBOW LAKE     CLOUDY    53  46  78 E6        29.82F
WADENA         PTSUNNY   54  45  71 SE9       29.81F
DETROIT LAKES  FAIR      55  43  62 SE8       29.82F
MOORHEAD       FAIR      55  46  71 CALM      29.81F
FERGUS FALLS   FAIR      55  45  67 S3        29.79F
MORRIS MN      PTSUNNY   54  46  76 NE5       29.81S
STAPLES        PTSUNNY   54  41  62 E6        29.81F
$$
  *****  WEATHER ELSEWHERE ACROSS MINNESOTA  *****

CITY           SKY/WX    TMP DP  RH WIND       PRES   REMARKS
DULUTH         PTSUNNY   50  44  80 E10       29.83S
INTRNTL FALLS  FAIR      58  38  47 E8        29.84F
ELY            CLOUDY    54  41  62 N3        29.84F
CLOQUET        CLOUDY    52  41  66 E14G20    29.82F
WHEATON        CLOUDY    52  46  82 E3        29.83F
BRAINERD       PTSUNNY   55  44  66 NE12      29.81F
HIBBING        PTSUNNY   54  41  61 E9        29.83F
ALEXANDRIA     CLOUDY    54  44  69 E7        29.82S
SAINT CLOUD    CLOUDY    53  45  74 NE10      29.79F
MINNEAPOLIS    CLOUDY    53  44  71 N10       29.78F
$$

  *****  WEATHER ACROSS SOUTH DAKOTA  *****

CITY           SKY/WX    TMP DP  RH WIND       PRES   REMARKS
SIOUX FALLS    CLOUDY    53  48  83 NE9       29.80F
BROOKINGS      PTSUNNY   53  45  74 VRB3      29.80F
WATERTOWN      PTSUNNY   53  45  74 MISG      29.79F
HURON          PTSUNNY   53  46  77 S5        29.80F
SISSETON         N/A     52  47  83 SE3       29.80F
ABERDEEN       PTSUNNY   57  39  51 S13       29.80F
MITCHELL       FAIR      54  47  77 E3        29.81F
PIERRE         FAIR      52  41  66 SE6       29.76F
MOBRIDGE       FAIR      55  40  56 S13       29.72F
RAPID CITY     FAIR      55  40  56 S20       29.69F
$$

  *****  SOME WEATHER IN NEARBY STATES *****

CITY           SKY/WX    TMP DP  RH WIND       PRES   REMARKS
GLASGOW MT     FAIR      65  38  36 S20G28    29.34F
GREAT FALLS MT FAIR      64  28  25 SW33G44   29.44R
CHEYENNE WY    FAIR      65  36  34 W17       29.80F
SCOTTSBLUFF NE FAIR      55  41  59 E13       29.74F
OMAHA NE       FAIR      57  48  72 N14       29.77S
DES MOINES IA  CLOUDY    55  50  83 N10       29.69S
DAVENPORT IA   PTSUNNY   58  51  78 N12       29.62F
CHICAGO IL     CLOUDY    57  51  80 NE14      29.58S
EAU CLAIRE WI  FAIR      57  45  64 NE10      29.73F
LA CROSSE WI   CLOUDY    54  48  80 NE9       29.71S
$$

  *****  SOME NATIONAL WEATHER *****

CITY           SKY/WX    TMP DP  RH WIND       PRES   REMARKS
LA GUARDIA NY  CLOUDY    61  52  72 NE8       29.77R
RALEIGH NC     DRIZZLE   69  66  90 E6        29.69S
ATLANTA GA     PTSUNNY   69  64  84 S10       29.57F
NEW ORLEANS LA FAIR      70  55  59 NW15G22   29.72R
OKLAHOMA CITY  FAIR      60  42  51 NW14      29.85S
ALBUQUERQUE NM FAIR      58  33  39 VRB3      30.06F
SALT LAKE CITY FAIR      70  43  37 SE15      29.82F
LOS ANGELES CA CLOUDY    58  57  97 SW8       29.90R FOG
BOISE ID       FAIR      64  38  38 NW22      29.80S
SEATTLE WA     PTSUNNY   50  40  68 SE9       30.07S
$$

*** WEATHER ACROSS MANITOBA...SASKATCHEWAN AND ONTARIO ***
                ***ONTARIO***

CITY           SKY/WX    TMP DP  RH WIND       PRES   REMARKS
GERALDTON      MOSUNNY   54  27  35 NE7       29.88F
THUNDER BAY    MOSUNNY   57  37  47 E13       29.85F
SIOUX LOOKOUT  MOSUNNY   59  39  47 SW5       29.85F
TORONTO        PTSUNNY   68  50  52 E12       29.69S
BIG TROUT LK   SUNNY     57  32  38 S7        29.84F
PICKLE LAKE    SUNNY     57  30  35 CALM      29.87F
DRYDEN         SUNNY     59  37  44 VRB5      29.84F
KENORA         MOSUNNY   59  39  47 SW8       29.83F
$$
                *** MANITOBA***

CITY           SKY/WX    TMP DP  RH WIND       PRES   REMARKS
BRANDON        PTSUNNY   64  36  34 S20G30    29.67F
DAUPHIN        SUNNY     66  36  32 SW13G24   29.61F
ISLAND LAKE    MOSUNNY   66  34  30 S13       29.71F
PILOT MOUND      N/A     61  36  39 S21         N/A
THE PAS        MOSUNNY   68  39  34 MISG      29.44F
THOMPSON       PTSUNNY   63  41  45 S9G20     29.50F
WINNIPEG       MOSUNNY   63  39  42 S15G22    29.77F
LYNN LAKE      CLOUDY    55  45  67 S5        29.41R
CHURCHILL      PTSUNNY   50  39  66 S16G25    29.46F
GILLAM         PTSUNNY   61  37  41 S18       29.57F
$$
                ***SASKATCHEWAN***

CITY           SKY/WX    TMP DP  RH WIND       PRES   REMARKS
ESTEVAN        MOSUNNY   59  37  44 SE33G43   29.53F
KINDERSLEY     PTSUNNY   63  45  51 NW7       29.10F
LLOYDMINSTER   LGT RAIN  61  48  63 SW21G36   29.02R
PRINCE ALBERT  LGT RAIN  55  45  67 SE10G17   29.22F
REGINA         PTSUNNY   61  36  39 SE30G40   29.37F
YORKTON          N/A     63  34  34 S29G38    29.48F
N. BATTLEFORD  MOSUNNY   66  45  45 SW14G21   29.08S
LA RONGE       CLOUDY    50  37  62 NE8       29.27F
SASKATOON      PTSUNNY   61  41  48 SE18G31   29.15F
SWIFT CURRENT  NOT AVBL
$$
NOTE: THESE ARE AUTOMATED STATIONS WITH LIMITED QUALITY CONTROL
      "FAIR" INDICATES FEW OR NO CLOUDS BELOW 12,000 FEET WITH NO
      SIGNIFICANT WEATHER AND/OR OBSTRUCTIONS TO VISIBILITY.
      SKY/WX - SKY CONDITION AND SIGNIFICANT WEATHER.
      TMP - AIR TEMPERATURE.    DP   - DEWPOINT TEMPERATURE.
      RH  - RELATIVE HUMIDITY.  PRES - PRESSURE.
      HX  - HEAT INDEX.         WCI  - WIND CHILL INDEX.
$




USA.gov is the U.S. government's official web portal to all federal, state and local government web resources and services.